FENGYUN 1C DEB, 35199

Orbit data source: Space-Track

FENGYUN 1C DEB, 35199 is space debris in SSO originally from a launch on Mon, 10 May 1999 UTC launched from the Taiyaun Space Center, China (TSC). Fengyun 1C debris stems from the Chinese weather satellite Fengyun-1C, which was intentionally destroyed by a Chinese anti-satellite missile in 2007. This event dramatically increased the amount of space debris, with thousands of trackable fragments posing hazards to satellites and human spaceflight. The Fengyun 1C debris cloud has become a focal point in discussions about space sustainability and the need for international regulations to prevent the creation of new debris.

Loading next visibility...
Identifier
35199, 1999-025DPF
Orbit
SSO
Country
Flag of CNCN / PRC
Related business
Manufacturer
Unknown
Mission
Spacecraft
Bus & Motor
Unknown
Mass
Unknown
Launch date (UTC)
1999-05-10 (27 years ago)
Launch vehicle
Unknown
Launch site
Taiyaun Space Center, China (TSC)
Object type
Payload
Rocket body
Debris
Shape & HBR
Unknown shape, 1.1 m
Radar Cross Section
Medium (>0.1 m² and <1 m²)

Expand to show TLE details & history
Last TLE update: 2 weeks ago

TLE from 2 weeks ago
0 FENGYUN 1C DEB
1 35199U 99025DPF 26148.61008929  .00002435  00000-0  16222-2 0  9997
2 35199  98.4433 289.4520 0118061 103.0256 258.4121 13.98645516945171
Epoch: 2026-05-28T14:38Z
TLE epoch observation values (Epoch: 2026-05-28T14:38:31.714Z)
Latitude
-0°
Longitude
-176.3325°
Altitude
919.614 km
Speed
7.383 km/s
True Right ascension
19h 17m 48s
True Declination
0° 00' 00"
Sunlit
Object was in full shadow at epoch
Visualization orbit readout
Latitude
Unknown
Longitude
Unknown
Altitude
Unknown
Speed
Unknown
Apparent Right ascension
Unknown
Apparent Declination
Unknown
Sunlit
N/A
Visualization observer readout
Local Sidereal Time
01:12:01
Azimuth
Unknown
Elevation
Unknown
Doppler factor
Unknown
Orbital elements
Apogee altitude
981.539 km
Perigee altitude
809.788 km
Semi-major axis
7,273.8 km
Eccentricity
0.01181
Inclination
98.4433°
RAAN
289.452°
Arg. of periapsis
103.0256°
True anomaly
257.09083°
Mean anomaly
258.4121°
Eccentric anomaly
257.75106°
Mean motion
3.49865 °/min
Orbital period
102.9 mins
BSTAR
0.0016222
Loading maneuver chart data...
Computing Atmospheric mass density...

Documentation

Showing up to 5 results
|